GFSMW_sfc_30mbdewp_000.txt.gz
Dewpoint
27 27 28 27 26 26 24 24 25 27 26 26 25 25 25 28 29 28 29 32 28 29 29 27 28 29 30 32 30 27 26 28 35 33 42 46 55 55 55 55 55 55 54
27 27 28 29 28 26 25 23 23 25 25 23 24 24 24 24 24 27 31 31 31 30 27 27 26 29 26 27 29 29 26 23 28 30 29 40 46 52 53 54 55 54 53
25 26 27 28 29 29 27 26 23 23 24 24 24 24 25 26 25 25 26 30 33 33 33 31 30 29 30 27 28 28 28 24 23 28 31 26 36 41 46 51 54 54 54
25 25 26 27 29 30 30 28 24 23 23 26 22 24 21 19 20 24 25 28 31 33 34 34 34 35 33 30 28 25 27 27 25 22 23 34 28 25 25 39 43 53 54
25 25 26 26 28 30 31 30 25 24 23 26 28 26 25 23 24 26 28 29 30 32 32 33 35 36 35 33 33 33 29 28 27 25 23 22 24 25 30 25 28 43 46
25 26 26 26 27 29 31 31 28 25 25 27 28 28 26 26 25 25 25 24 25 25 27 29 30 31 32 32 32 33 33 32 30 28 26 23 22 20 19 28 29 26 32
27 27 26 25 26 27 29 28 27 25 25 27 28 29 29 29 26 25 22 24 22 22 22 23 24 23 24 25 26 27 28 29 28 27 26 25 23 23 21 20 21 21 27
28 27 26 26 26 27 27 27 24 25 25 27 28 29 27 23 22 22 21 20 21 21 22 23 22 22 23 23 23 23 23 24 28 28 29 27 23 22 22 21 20 19 21
29 28 27 26 27 27 27 28 26 24 24 27 28 25 25 23 20 22 22 20 21 19 17 21 22 23 24 25 25 25 25 26 28 30 31 30 30 25 24 24 23 21 18
30 30 30 29 29 29 27 28 28 24 25 25 25 24 23 21 20 21 21 21 21 20 20 21 22 22 23 24 24 24 24 24 27 27 28 29 30 26 25 25 25 25 24
31 31 30 30 30 29 27 27 26 23 23 23 24 23 20 20 21 21 21 20 21 21 21 21 22 22 22 23 23 24 24 24 25 25 27 27 28 29 27 25 24 24 24
31 30 32 31 29 26 24 24 24 22 23 23 24 22 21 22 21 20 21 21 21 22 22 22 21 20 20 20 21 22 22 23 24 24 24 24 26 27 28 27 25 23 23
30 31 33 30 25 24 23 22 23 21 22 22 21 21 22 21 21 21 21 21 21 21 20 18 17 17 18 19 20 21 23 23 24 25 25 25 25 26 27 26 25 24 23
30 33 35 29 23 22 22 20 21 22 22 21 19 20 22 22 22 21 21 21 21 18 16 16 16 17 18 19 21 21 22 23 24 26 27 28 27 29 27 25 25 25 25
34 35 32 27 22 21 20 19 20 23 23 21 20 19 23 23 21 20 20 20 17 15 15 15 15 17 19 20 20 21 21 22 23 25 26 26 27 28 29 29 29 27 27
35 33 30 23 19 18 18 23 23 27 24 21 19 21 23 21 19 19 18 15 12 12 13 14 15 18 19 20 22 22 22 23 24 25 25 26 26 27 27 27 29 33 32
34 38 27 20 17 18 26 27 29 26 23 20 20 21 20 19 18 17 13 11 11 12 13 15 18 20 20 21 21 21 23 25 25 25 25 24 24 25 25 28 28 28 29
37 36 26 19 21 28 28 30 24 21 20 19 20 19 19 17 16 13 10 10 11 12 15 18 20 20 20 21 21 22 24 26 26 26 25 25 26 25 25 25 27 28 29
36 30 28 28 31 33 35 28 21 18 18 19 19 18 18 17 13 10 9 11 13 15 18 19 20 20 22 22 22 23 25 26 25 25 25 25 26 27 26 26 26 26 29
38 33 36 38 38 36 30 20 18 16 18 18 18 18 17 13 10 9 10 12 14 17 20 21 21 22 23 23 23 25 26 25 25 25 26 26 26 27 27 27 27 27 26
37 36 35 34 33 29 20 19 16 17 18 19 18 17 14 11 9 9 11 12 17 21 23 23 24 24 25 26 25 26 28 27 27 26 26 28 28 28 28 28 29 27 25
35 36 34 31 29 30 23 18 15 17 18 18 17 15 13 11 8 10 12 16 19 21 21 22 23 25 27 30 30 29 28 29 28 27 27 29 28 27 30 30 29 28 27
36 33 31 30 29 21 18 16 18 18 18 17 16 15 13 9 9 11 15 17 17 18 20 21 22 24 26 27 27 26 26 27 26 26 26 25 25 26 28 30 30 29 28
36 31 29 24 19 18 19 17 19 19 17 17 17 15 10 10 11 14 15 17 17 19 19 20 23 23 24 25 26 25 26 27 27 27 25 27 27 30 31 31 30 30 30
33 28 24 20 17 19 18 19 19 19 18 18 17 12 10 13 14 15 17 18 18 20 21 22 23 23 22 24 27 26 25 25 25 25 27 26 24 25 28 30 30 29 30
30 27 21 18 18 18 19 20 19 19 19 18 16 13 15 15 15 16 17 18 18 19 20 22 24 24 25 27 27 25 24 24 24 25 23 23 24 23 23 25 28 30 30

GFSMW_sfc_30mbdewp_003.txt.gz
Dewpoint
21 25 28 30 30 29 29 27 28 28 28 26 26 27 29 30 30 30 31 32 29 31 31 29 29 31 29 31 33 32 30 28 28 31 32 30 37 48 55 57 56 55 55
24 26 28 30 31 30 29 27 27 27 28 26 26 26 27 26 28 29 31 33 32 31 30 29 29 28 29 31 31 31 30 29 28 26 27 28 30 35 45 50 54 54 55
23 25 28 29 32 32 31 30 27 26 28 26 24 26 27 28 26 26 29 33 34 33 32 32 31 31 32 30 30 30 30 28 30 30 26 24 26 33 28 37 42 52 55
24 25 26 28 30 33 33 32 30 28 27 28 25 25 23 23 23 24 24 24 28 32 33 32 30 30 31 31 32 30 32 32 30 31 29 31 28 25 27 27 29 40 43
25 26 27 27 28 31 34 34 32 30 27 26 29 28 28 28 25 25 26 28 29 30 31 31 30 31 31 31 34 35 35 33 33 32 31 31 30 30 28 26 26 29 37
27 27 28 28 28 30 34 35 34 32 29 27 27 31 31 30 27 27 28 29 28 28 27 26 28 29 29 29 31 34 34 34 34 34 33 31 30 28 28 27 27 25 29
28 29 29 28 28 28 31 34 34 33 30 28 29 31 31 31 30 29 27 25 26 24 25 25 27 25 24 24 25 28 30 29 29 31 31 30 29 28 28 27 26 26 25
30 30 30 30 29 29 29 31 31 31 29 29 28 29 30 30 30 26 25 24 22 23 23 23 23 22 22 22 24 25 27 27 27 28 29 28 28 29 28 27 25 24 25
30 31 32 32 32 31 31 32 32 32 30 28 28 30 31 29 25 23 25 23 22 20 19 21 22 21 21 21 23 26 26 27 28 30 32 31 30 31 32 32 29 25 23
31 31 32 32 33 33 33 34 33 32 31 27 28 30 28 26 24 24 23 22 22 22 21 20 20 20 20 21 23 25 25 27 28 27 29 29 29 29 30 31 32 29 26
31 31 31 32 34 35 33 32 31 31 30 26 28 27 25 23 22 22 21 22 22 21 20 20 19 20 21 21 22 22 24 24 25 26 27 28 28 28 28 30 31 31 28
31 32 32 34 34 34 30 29 29 28 26 26 26 25 24 22 21 22 22 22 22 21 21 20 20 20 19 19 19 20 20 21 21 23 24 25 24 26 28 28 30 30 30
32 32 32 35 34 32 28 27 27 26 24 24 24 23 21 23 23 22 22 22 21 20 20 19 19 18 18 18 19 18 19 20 22 23 24 25 26 26 26 27 27 29 28
31 31 34 35 36 32 28 26 25 25 23 22 21 23 25 23 22 23 23 22 21 20 19 18 17 17 18 18 17 18 19 21 22 24 25 25 25 26 27 28 29 28 28
32 33 35 37 39 31 25 25 23 23 23 24 26 28 25 24 24 23 22 21 20 19 17 15 16 17 17 16 17 19 20 22 23 23 24 25 26 26 27 27 28 30 30
32 34 37 39 38 28 24 23 21 24 27 29 29 25 24 23 22 21 21 19 17 14 15 15 16 16 16 18 23 23 22 23 23 24 24 23 24 25 26 27 27 27 28
36 36 39 39 35 28 23 22 26 30 36 28 26 24 22 21 21 20 18 15 14 14 15 15 15 17 19 21 23 23 23 24 25 24 25 25 23 25 25 26 27 28 27
36 39 39 38 32 29 27 30 36 32 29 28 24 20 20 20 20 18 15 13 14 14 15 16 17 19 20 22 24 24 24 25 25 25 25 26 26 26 26 27 29 27 28
40 38 38 37 34 35 37 39 37 30 25 20 19 19 19 20 17 14 14 14 14 15 15 17 20 21 22 23 24 24 27 26 26 25 25 26 27 27 26 29 28 29 30
38 36 37 36 38 38 38 34 28 22 20 19 19 19 19 17 14 14 14 14 14 14 19 21 22 22 23 25 26 27 28 28 28 27 27 26 26 28 29 29 28 27 27
36 37 36 36 35 35 31 24 23 23 18 19 20 19 17 15 15 14 13 13 15 20 24 25 24 24 26 27 29 30 29 28 26 25 27 30 30 30 29 28 29 28 28
36 36 37 34 32 32 29 23 19 17 18 19 19 17 16 17 14 12 12 14 17 20 22 23 23 24 25 26 25 27 29 28 27 26 26 27 30 30 28 27 27 30 30
37 37 35 34 32 25 21 17 19 17 19 19 18 17 18 17 13 11 14 15 15 20 21 22 21 22 24 24 24 27 27 29 28 28 28 27 26 26 26 26 26 26 29
36 37 34 30 24 21 18 17 19 20 18 18 18 19 18 14 13 14 14 14 18 20 19 20 21 22 22 22 24 26 27 25 26 27 26 26 27 28 29 31 31 28 30
37 34 30 26 21 19 19 19 19 20 19 19 20 19 17 15 15 16 15 16 20 22 20 21 23 23 21 22 27 27 25 26 26 26 28 27 25 26 27 30 31 30 30
36 32 25 21 19 18 18 19 20 19 21 21 22 21 16 16 17 15 15 18 20 21 20 24 25 24 23 26 27 28 28 26 27 27 25 24 23 23 25 28 29 29 28

GFSMW_sfc_30mbdewp_006.txt.gz
Dewpoint
20 23 29 31 32 33 33 32 31 33 33 32 32 33 34 35 37 37 36 37 36 36 35 35 34 36 35 36 36 37 36 35 37 35 32 32 33 36 38 49 55 57 57
24 26 30 32 33 33 34 33 32 32 33 32 33 32 34 34 35 35 36 35 37 34 35 36 33 34 34 35 37 38 35 36 34 35 34 31 30 33 33 36 42 47 54
24 25 27 29 35 35 36 35 33 32 33 32 32 33 33 32 31 31 34 37 36 38 37 37 36 35 36 36 37 35 35 34 36 34 34 32 30 32 31 32 32 35 41
26 27 27 28 31 35 38 37 36 34 32 35 31 31 30 29 29 30 31 32 39 38 36 36 37 37 36 35 37 36 39 37 35 36 36 35 34 32 30 32 31 30 30
28 28 29 30 30 32 38 38 38 37 35 34 34 32 32 32 32 32 32 32 33 33 33 33 34 36 37 37 37 36 36 37 37 36 36 35 35 34 33 31 30 31 31
29 30 31 31 31 34 34 38 38 37 37 36 35 35 32 33 34 33 32 32 32 32 33 32 32 32 32 32 32 32 32 32 33 34 34 33 32 31 30 29 29 29 30
29 31 32 32 33 33 35 38 38 37 37 38 38 35 36 35 34 35 34 31 30 28 29 28 29 28 28 28 29 29 29 30 30 29 29 29 29 29 29 27 24 24 25
31 31 33 34 34 35 36 35 34 34 35 37 38 37 36 35 35 35 33 28 27 26 27 26 27 27 27 28 28 28 29 29 29 29 30 30 30 29 28 27 27 25 25
31 32 33 34 35 36 36 37 37 37 36 36 38 36 36 35 34 32 30 28 28 25 27 27 27 27 29 29 29 28 27 29 29 30 30 30 30 32 31 30 28 26 26
33 33 34 34 36 37 38 38 39 36 35 35 36 33 33 33 30 28 28 26 26 25 27 26 26 26 26 26 26 27 28 28 28 28 29 29 29 29 29 29 30 30 30
33 33 34 34 36 37 37 37 34 32 33 32 33 32 31 30 27 26 25 25 27 26 26 26 25 24 24 24 25 25 26 25 25 26 26 26 27 27 27 28 28 28 29
32 33 33 34 36 37 39 39 34 31 31 31 31 30 29 27 26 25 26 27 27 27 26 25 24 23 23 23 23 23 23 23 23 23 24 24 24 25 26 27 27 27 28
32 34 34 35 36 38 40 40 32 30 29 27 28 27 27 26 25 28 28 28 27 25 25 24 24 23 23 22 22 22 22 22 22 22 23 23 24 24 25 26 27 27 27
33 33 34 36 37 39 40 36 29 29 27 25 25 26 24 25 28 28 27 27 26 26 25 24 23 22 21 20 20 20 20 21 21 24 25 26 26 26 26 26 26 26 27
35 38 38 36 38 39 39 32 29 26 26 24 23 26 32 31 31 27 27 26 26 25 24 21 20 21 21 19 18 21 22 22 23 24 24 24 24 25 26 26 26 26 26
39 39 37 37 38 38 38 29 26 25 25 27 35 38 35 29 26 26 25 24 24 22 20 20 20 21 19 19 22 26 24 24 23 24 24 24 24 24 24 25 26 26 25
39 39 39 39 38 37 33 30 31 37 38 38 36 34 33 26 24 24 23 23 21 20 20 20 20 20 21 22 25 25 24 24 24 24 24 24 23 24 24 25 26 27 27
39 39 39 38 38 35 35 39 40 37 35 35 35 33 24 22 22 23 22 19 19 19 19 20 20 21 23 24 24 24 24 24 25 25 25 25 25 25 25 25 27 29 29
39 38 37 37 36 37 39 39 40 39 37 31 24 21 21 21 22 20 18 19 19 18 19 20 22 22 23 24 24 25 25 28 28 27 26 26 26 25 26 28 28 28 27
38 35 37 37 37 38 38 36 35 33 24 23 21 20 21 20 18 18 18 18 18 17 21 21 24 25 23 24 25 26 28 28 28 27 28 28 30 29 29 28 28 26 26
34 36 36 36 37 35 35 30 24 24 23 20 19 20 20 17 18 18 18 16 17 20 21 25 24 23 24 25 26 25 27 28 26 26 26 25 25 26 29 30 28 27 27
35 36 36 36 35 34 35 27 20 18 19 20 20 20 19 19 19 18 16 17 18 20 22 22 23 22 22 24 23 26 27 28 27 26 27 28 29 28 29 29 29 29 30
36 36 36 35 35 32 22 20 20 18 19 19 20 20 21 21 18 16 17 18 18 20 21 23 20 20 22 23 22 23 25 28 26 27 27 28 28 27 28 28 28 27 27
35 36 36 33 29 25 19 20 20 21 20 20 21 21 21 20 18 18 18 18 19 21 23 20 21 21 22 21 22 25 27 29 28 28 28 27 27 28 28 29 29 29 28
35 36 32 31 25 20 19 19 20 21 20 22 22 23 23 20 18 19 18 18 21 22 21 22 24 23 21 22 26 28 28 28 28 28 25 25 25 24 24 26 30 28 28
35 33 31 23 21 19 19 19 22 24 25 24 24 24 22 20 20 19 19 20 21 22 22 22 26 25 24 26 27 28 29 28 28 25 24 22 22 24 24 25 29 29 29

GFSMW_sfc_30mbdewp_009.txt.gz
Dewpoint
29 31 32 32 33 34 32 31 32 33 34 32 32 33 35 36 37 36 40 40 39 36 34 35 38 38 36 37 37 37 35 33 36 34 34 33 33 33 33 38 39 45 38
26 30 32 32 31 32 33 32 32 32 33 32 33 32 32 34 35 36 37 38 38 36 35 34 35 34 34 33 34 39 36 37 35 35 33 30 32 32 34 33 34 34 41
24 26 27 31 33 33 33 34 33 33 34 32 32 33 35 35 33 34 36 37 36 37 37 36 37 36 35 34 36 35 34 33 36 35 34 32 30 33 33 33 33 34 34
27 28 27 28 32 34 36 36 35 35 34 35 31 30 30 30 30 30 31 35 37 38 38 37 38 38 37 36 38 38 37 36 35 37 36 36 36 34 32 33 33 33 33
28 28 30 31 32 33 36 38 38 37 37 36 36 32 31 33 32 32 32 35 38 40 39 38 37 37 37 34 33 32 31 34 34 33 34 34 34 35 32 29 30 31 31
29 31 32 32 32 35 35 37 37 36 37 37 37 37 34 33 33 33 33 35 36 33 32 31 31 30 29 28 29 28 26 25 28 30 31 31 29 28 29 28 28 27 29
31 30 31 32 33 34 35 36 37 37 37 38 38 38 37 36 33 33 35 31 32 30 29 28 28 29 29 29 28 27 28 28 27 29 29 31 30 29 27 26 24 23 23
31 32 34 35 35 35 36 37 37 37 37 38 39 39 39 39 36 36 36 33 29 29 30 30 30 29 31 32 34 32 28 29 29 28 29 30 30 30 30 28 27 25 25
33 33 34 35 36 37 38 38 38 38 37 37 36 36 39 39 37 34 29 29 29 29 31 32 31 34 35 35 32 31 29 29 29 30 30 31 30 31 30 30 29 28 26
34 34 34 35 36 38 39 39 39 38 36 34 34 34 35 31 32 31 28 27 29 31 32 34 35 35 34 31 27 28 28 28 29 29 29 29 29 30 31 31 31 31 30
33 34 34 36 38 39 39 40 40 40 35 33 34 33 31 28 28 28 27 28 29 32 34 34 34 31 26 26 27 27 27 26 26 27 26 27 27 28 28 29 28 27 27
34 35 36 37 37 38 40 40 40 40 32 32 32 31 29 27 26 25 27 29 30 31 29 29 28 26 27 27 26 25 25 24 24 24 25 25 24 24 25 26 25 26 26
36 39 39 38 38 38 39 40 39 34 30 29 29 28 27 26 26 28 28 29 29 29 29 26 26 26 26 25 25 23 22 22 23 23 23 23 23 23 24 25 26 26 27
39 39 39 39 37 38 38 39 35 29 29 27 27 26 26 26 29 29 30 29 28 28 27 26 26 26 24 22 22 22 21 22 23 24 25 25 25 25 25 24 25 25 26
39 39 39 38 38 39 39 37 28 31 28 26 29 34 34 32 31 31 29 29 27 26 26 26 23 22 23 20 20 24 25 24 24 24 25 24 25 25 26 24 23 23 24
39 39 40 39 39 39 37 32 35 37 38 37 36 36 35 34 32 28 27 26 24 25 22 21 22 21 21 21 27 26 25 25 24 23 23 23 24 24 25 25 25 25 24
40 39 40 39 38 38 34 35 38 38 38 37 36 37 37 36 35 30 25 24 24 21 20 20 20 20 23 24 24 24 23 23 23 23 24 24 24 24 24 24 25 25 26
41 40 39 38 37 36 37 39 40 40 37 37 36 36 36 34 24 23 23 21 20 19 18 19 21 22 22 24 25 25 25 25 24 25 25 25 25 25 25 25 24 24 25
41 39 39 37 37 37 38 38 38 39 39 36 35 31 23 22 22 21 19 18 18 17 19 21 20 22 24 25 25 25 26 26 26 27 27 27 28 27 27 27 27 26 26
39 38 36 36 36 36 38 37 35 35 36 23 21 22 21 21 19 18 18 18 18 17 20 20 24 23 24 24 25 24 26 26 25 25 25 25 25 27 28 28 28 26 26
38 36 36 36 36 35 35 33 28 22 21 21 21 21 20 19 20 20 19 16 17 19 20 21 21 23 24 23 23 23 26 26 25 25 25 25 26 27 28 29 28 27 27
36 36 35 36 35 35 34 31 18 20 21 21 21 21 21 21 20 17 17 18 19 19 19 21 21 21 21 23 24 24 24 25 25 25 26 26 27 28 28 29 29 29 29
35 35 36 36 35 32 21 21 21 21 22 21 22 22 22 22 19 18 18 19 19 20 20 21 20 20 22 24 23 22 24 26 27 28 28 28 29 28 28 28 28 29 28
34 35 36 33 32 29 21 20 22 22 21 22 22 23 23 21 19 19 20 19 19 19 19 20 21 22 23 21 22 25 27 29 28 27 27 24 24 26 25 25 27 28 29
33 36 35 33 30 21 20 20 22 23 23 23 24 25 23 20 20 21 20 20 19 20 21 22 24 23 20 22 26 27 27 28 27 26 22 22 21 21 23 24 25 28 27
34 35 30 24 21 21 23 25 25 25 24 24 24 24 21 21 20 20 20 20 21 22 21 23 26 23 23 26 25 26 27 27 28 24 21 20 21 20 21 22 24 27 28

GFSMW_sfc_30mbdewp_012.txt.gz
Dewpoint
31 31 31 33 33 33 33 33 31 30 35 34 34 33 35 36 37 39 45 44 42 40 37 36 40 39 37 37 37 36 36 34 36 34 34 33 34 34 31 36 36 37 37
30 31 31 32 32 31 31 31 31 32 33 32 32 32 32 33 35 36 39 43 42 40 36 35 36 38 38 37 37 38 36 36 37 34 34 30 31 31 34 34 34 35 37
27 30 31 30 31 31 32 32 32 32 33 33 33 33 34 35 34 34 36 38 41 40 37 36 36 35 36 33 34 36 35 33 37 35 34 31 28 33 32 34 35 34 35
26 26 27 30 33 32 34 34 35 34 34 34 33 31 30 30 31 31 33 36 39 39 39 38 37 37 38 37 38 37 37 36 33 35 37 36 36 30 28 32 32 34 32
28 29 30 31 30 33 33 36 37 36 36 37 36 34 32 32 32 33 32 32 35 38 39 39 39 40 39 35 30 28 26 29 28 28 29 28 29 32 28 24 22 26 29
29 31 32 32 33 34 35 37 38 37 38 38 38 37 36 35 34 34 34 33 36 38 39 38 35 32 31 30 30 31 30 30 30 30 29 29 27 26 27 26 25 24 25
30 30 31 32 33 34 35 37 37 37 38 38 38 38 39 39 37 36 35 35 34 32 31 31 31 32 34 35 36 36 36 34 30 28 28 28 29 30 30 29 27 27 27
30 33 35 35 36 37 38 37 38 39 38 38 38 38 39 40 40 39 37 36 34 31 32 34 36 37 38 38 38 36 35 33 30 29 29 29 29 30 29 28 29 28 27
34 34 35 36 37 38 39 39 39 39 38 39 39 36 36 38 38 37 35 34 32 33 35 37 39 39 39 39 36 34 31 32 31 29 29 29 30 32 31 31 30 28 27
34 35 35 37 38 38 39 40 39 39 39 40 35 34 35 35 33 30 29 31 34 36 38 39 39 39 38 34 30 32 32 29 29 29 29 29 29 30 30 30 30 29 27
35 36 37 38 38 38 39 39 40 40 40 34 33 34 30 31 30 29 30 31 34 36 37 37 35 34 33 33 32 29 28 28 27 27 27 27 27 27 28 29 28 28 28
37 39 39 39 39 39 39 39 39 40 33 31 33 32 29 28 27 28 29 31 32 32 32 33 32 31 31 29 28 27 26 25 24 24 24 24 24 24 25 26 25 25 25
39 39 39 39 40 39 38 39 40 34 30 30 31 29 27 26 26 28 29 30 30 29 29 29 28 28 28 27 26 25 23 23 23 23 24 24 25 25 25 26 26 27 27
39 39 39 39 40 39 39 39 35 33 30 28 29 28 28 27 30 29 30 29 29 28 28 27 27 27 27 24 24 23 23 24 24 24 24 24 24 24 24 24 23 23 23
39 39 39 39 40 39 39 38 34 36 35 33 34 35 34 32 31 30 31 32 30 27 27 27 24 23 23 21 23 26 25 24 24 24 24 24 24 24 25 25 24 24 23
40 38 40 40 40 39 38 35 36 37 38 36 37 37 37 36 36 36 34 31 30 26 23 21 21 20 21 23 25 25 24 23 22 22 23 23 23 23 24 25 26 26 25
39 38 40 41 39 38 36 36 38 40 38 38 38 38 38 37 34 35 32 30 24 21 19 18 19 21 22 22 24 25 24 24 24 24 24 24 24 24 24 25 26 26 26
38 39 41 40 38 37 36 38 38 39 38 38 37 36 36 36 34 29 23 20 19 18 18 19 20 20 21 25 25 25 25 25 25 25 25 25 24 25 25 25 26 25 25
40 41 41 38 36 36 36 37 36 36 38 38 34 27 24 22 21 19 18 18 18 17 17 19 22 23 23 24 25 24 24 24 26 25 25 25 25 25 25 25 27 27 26
41 40 36 36 36 36 36 35 31 27 25 22 22 22 22 20 19 20 19 18 17 18 21 22 22 22 22 23 23 22 24 25 24 24 24 24 25 25 27 27 26 25 26
37 36 35 35 36 36 35 33 20 20 21 22 23 22 21 21 21 18 18 18 18 20 19 19 19 20 22 22 22 23 25 25 24 24 24 24 26 27 28 29 27 26 26
35 35 35 35 36 34 34 25 19 21 22 22 22 22 22 22 19 18 18 19 19 19 17 17 18 20 20 22 24 23 22 24 26 25 26 27 28 25 27 28 29 29 29
34 34 34 36 34 33 28 21 21 22 22 22 22 23 24 22 19 19 20 20 19 18 18 19 19 20 21 23 23 22 24 26 27 27 27 24 24 23 24 26 26 27 27
32 33 36 35 33 31 21 21 23 23 23 22 23 25 23 21 20 21 20 19 18 18 20 20 20 22 21 20 21 25 26 27 28 25 24 22 22 22 24 25 26 26 27
34 35 33 31 24 22 22 24 24 23 23 23 24 24 22 21 20 21 21 20 21 21 21 20 23 20 19 21 26 25 26 27 26 26 23 19 19 20 21 22 24 26 27
33 31 27 25 24 23 25 25 25 24 24 23 22 23 22 22 19 20 20 21 22 21 21 23 22 22 23 25 23 24 25 24 25 22 20 19 19 19 20 20 21 22 25

GFSMW_sfc_30mbdewp_015.txt.gz
Dewpoint
31 31 30 33 34 38 38 36 33 40 39 37 35 35 35 36 38 38 42 46 46 44 41 40 42 40 37 36 37 36 34 35 36 34 33 33 34 33 32 35 34 35 37
30 32 33 33 33 34 34 34 32 31 33 34 33 33 33 34 36 37 38 41 44 44 42 38 39 40 38 37 37 36 36 36 37 32 34 30 31 31 33 33 35 34 37
29 30 31 31 31 31 31 32 32 32 33 33 33 33 34 34 34 34 35 37 43 44 43 39 37 39 40 37 37 37 36 33 36 36 33 30 27 32 31 30 32 34 32
28 29 30 30 31 31 32 33 33 34 34 34 34 32 31 31 31 32 33 35 38 41 43 41 38 37 38 38 37 38 37 36 34 35 37 32 34 23 17 27 27 24 28
28 28 28 28 30 32 33 35 37 38 38 38 37 36 36 35 35 35 34 34 35 39 41 41 40 39 39 38 37 34 30 29 28 27 27 28 30 31 27 18 18 23 25
28 29 31 32 32 34 35 37 37 37 39 38 38 38 38 38 38 38 37 37 37 36 39 40 40 38 34 32 32 32 32 32 32 32 32 31 27 24 25 25 23 25 26
29 31 31 32 34 36 38 38 39 38 39 39 38 39 39 39 39 39 39 38 37 35 35 36 34 35 37 38 39 38 37 37 35 35 34 33 33 31 29 29 27 26 26
31 34 35 36 37 38 39 39 39 38 39 39 39 41 38 37 38 39 40 39 36 33 36 37 38 39 39 39 39 38 38 39 38 36 35 31 30 30 29 28 27 26 25
34 34 36 37 38 38 38 39 39 39 39 40 40 37 34 34 36 37 36 35 34 36 38 39 40 39 38 39 40 37 35 35 34 33 31 30 29 30 30 30 30 28 24
36 37 37 38 38 38 39 39 40 39 40 40 35 32 33 34 35 33 33 33 34 37 39 39 38 38 38 38 38 35 33 32 31 30 29 29 29 30 31 30 30 29 28
37 38 39 39 39 39 39 39 39 39 40 35 31 32 33 32 32 31 32 34 37 37 38 34 34 36 36 35 34 32 31 29 28 27 26 25 27 27 27 28 28 28 27
38 39 40 39 40 40 40 39 39 40 34 32 31 32 33 30 29 30 31 33 33 33 31 32 33 33 33 32 29 28 27 25 24 24 24 24 24 24 26 27 27 26 25
38 39 40 39 40 40 40 40 40 35 34 31 30 30 30 28 28 29 31 31 31 30 30 30 30 29 29 28 27 26 24 24 24 25 25 25 25 25 25 25 25 26 26
39 39 40 40 40 40 40 39 38 35 36 34 31 29 29 27 29 30 31 30 30 30 29 28 28 28 25 23 23 22 23 24 24 24 24 24 24 23 23 23 23 23 23
39 40 40 39 40 41 40 39 35 37 38 38 36 34 33 33 35 37 36 35 33 32 29 26 23 22 21 20 23 25 24 23 23 23 23 23 23 23 23 23 24 24 24
39 40 39 39 40 41 39 37 37 37 39 39 37 37 38 38 37 36 33 33 34 30 23 20 20 19 21 23 24 24 25 25 23 22 23 24 24 24 24 25 25 26 25
38 35 37 39 40 41 38 36 36 38 38 37 38 38 37 37 37 36 35 33 25 20 19 19 20 20 21 23 25 25 25 25 24 24 24 24 24 24 25 25 25 26 26
32 32 35 40 40 37 36 36 37 37 37 38 38 36 36 36 32 26 22 19 19 18 18 18 20 22 22 23 23 24 25 24 24 25 25 25 25 25 24 23 25 25 24
33 37 39 36 36 35 36 36 36 30 34 31 24 23 23 22 21 19 19 19 17 17 18 21 22 21 20 22 22 23 23 23 23 24 25 25 24 25 25 25 25 25 25
38 36 36 35 35 35 36 35 30 23 23 23 23 22 21 21 20 20 18 18 18 19 21 21 20 20 20 21 23 23 23 24 24 24 23 23 23 25 26 26 26 25 24
35 35 34 34 35 36 36 36 26 25 22 23 22 22 22 22 20 19 18 19 20 20 18 17 17 19 20 21 23 23 23 24 23 23 23 25 26 26 27 28 26 26 28
34 34 33 33 36 36 33 32 26 22 23 22 22 23 23 21 20 19 20 20 19 18 16 17 18 19 20 22 23 22 22 24 25 24 27 26 24 22 22 23 24 26 27
33 33 32 36 36 33 28 23 22 22 22 23 23 24 24 22 20 20 20 19 18 18 18 19 19 19 21 21 21 21 24 24 26 28 27 27 21 22 22 24 25 26 26
33 35 32 30 26 26 24 25 24 24 23 23 24 25 22 21 20 20 21 20 20 19 20 20 19 20 19 19 21 25 24 26 27 25 25 24 20 21 23 24 24 25 26
35 32 32 28 29 29 27 25 24 24 23 23 23 23 23 22 20 19 20 22 22 21 20 19 22 19 18 20 24 24 24 25 25 23 21 19 18 18 19 19 20 21 22
32 31 29 28 26 24 25 26 26 25 24 23 22 23 23 22 19 19 20 21 21 21 20 21 21 20 21 23 23 23 24 24 22 21 19 17 16 17 18 18 18 19 20

GFSMW_sfc_30mbdewp_021.txt.gz
Dewpoint
31 32 33 33 36 40 44 45 46 48 47 46 44 42 41 40 40 40 42 43 43 46 48 47 48 49 47 47 48 46 44 39 39 36 35 36 38 38 36 36 35 33 33
30 32 33 35 37 38 41 43 43 39 38 41 39 38 37 37 37 38 40 41 41 43 44 46 45 46 46 46 46 45 41 39 39 34 34 31 32 35 36 35 34 37 33
31 32 33 35 36 37 37 36 36 37 38 39 37 38 39 39 38 38 38 39 41 41 42 43 44 44 45 44 45 44 42 39 38 38 33 32 30 31 34 36 34 33 35
29 30 31 33 36 37 40 40 41 40 40 41 40 40 39 38 38 39 38 40 41 41 42 42 42 43 44 43 43 43 43 41 38 38 37 37 35 31 29 30 31 32 27
31 31 33 36 39 41 41 42 41 41 41 41 42 40 38 38 39 39 39 38 39 41 42 41 41 42 43 43 43 43 42 40 39 37 37 37 33 31 28 28 27 24 26
33 36 38 39 39 41 41 42 41 40 41 41 42 42 39 38 37 37 36 35 37 40 40 39 41 41 41 40 39 38 39 37 37 35 34 33 32 30 28 28 28 29 31
37 37 38 38 39 39 40 40 40 39 41 41 42 42 38 38 37 36 35 35 35 37 37 39 40 39 39 39 39 40 40 40 39 39 38 38 37 36 34 32 33 32 29
37 38 38 39 39 40 40 41 40 39 40 40 41 41 38 37 36 35 36 36 36 37 39 39 39 39 40 40 40 40 40 38 37 36 34 33 33 35 35 34 33 30 28
38 38 39 40 40 40 41 42 41 39 39 40 41 37 37 37 36 36 36 35 37 38 40 40 39 39 39 39 39 38 37 37 37 36 36 35 35 36 35 34 32 29 23
37 37 38 40 41 41 41 42 42 40 40 40 39 35 37 36 36 35 33 34 37 39 39 39 38 38 37 37 37 36 36 36 36 35 35 35 34 33 32 30 28 25 21
38 38 39 40 41 42 41 41 41 41 40 40 36 37 37 37 34 32 33 35 38 39 38 35 34 34 35 35 35 35 34 33 31 30 29 27 27 25 24 23 22 21 21
39 39 40 41 40 39 36 38 41 42 41 37 38 37 37 34 30 32 33 35 34 36 37 37 37 37 35 32 30 29 28 26 24 23 22 21 20 21 23 23 23 23 22
39 40 40 39 36 34 36 39 41 41 39 37 38 38 35 31 33 36 37 37 38 37 37 36 33 32 31 26 24 22 21 21 21 22 22 23 24 22 21 20 20 19 19
39 40 38 36 33 33 38 40 39 39 38 37 38 37 34 36 37 37 36 36 36 34 33 33 28 25 22 20 20 21 22 22 22 22 22 21 21 20 19 18 18 18 19
39 38 34 31 34 38 36 34 35 36 37 38 37 37 36 38 36 36 36 35 34 34 35 33 24 23 21 19 22 21 22 22 21 21 21 21 21 22 22 21 20 20 20
37 34 32 36 35 31 32 34 35 36 38 36 37 38 39 39 38 37 36 35 36 34 25 22 21 21 19 23 24 23 20 20 20 20 20 20 21 21 22 24 24 24 23
34 33 35 32 31 32 34 35 36 36 33 35 36 36 34 33 33 31 24 22 22 22 20 20 20 21 22 21 21 21 20 21 20 20 20 20 20 22 22 23 23 25 25
33 35 32 31 32 33 34 36 36 33 32 30 31 27 25 24 23 22 22 21 20 20 20 20 21 20 18 20 21 22 22 22 21 21 21 21 22 23 23 23 24 23 24
35 34 32 33 32 32 35 35 36 32 26 26 24 24 23 22 22 21 20 20 20 20 20 20 19 18 19 19 21 23 22 21 21 22 22 21 22 23 26 26 26 24 23
35 30 32 33 32 31 34 34 34 34 27 26 26 25 24 23 22 21 21 20 20 19 20 19 19 20 20 21 22 21 21 21 20 21 21 23 24 26 27 27 25 22 21
32 31 32 32 32 32 30 28 28 32 24 27 25 24 24 23 22 21 20 19 19 21 22 22 22 21 20 22 21 20 21 21 22 21 21 24 27 28 28 22 22 23 24
31 30 32 32 32 26 25 25 25 25 26 24 24 24 24 22 20 20 18 19 20 21 21 21 20 19 21 20 19 20 21 21 23 22 24 27 24 21 21 22 23 23 24
30 30 32 33 31 30 27 28 28 27 25 24 23 22 22 21 21 20 19 19 20 19 19 19 18 17 18 18 18 22 21 20 23 25 25 24 21 19 20 21 22 22 22
30 30 32 33 31 31 30 29 26 25 24 23 22 22 23 23 23 22 20 20 20 19 18 18 17 17 16 16 18 20 20 20 24 24 24 22 18 17 17 18 20 21 22
31 31 32 33 31 31 28 25 25 26 24 24 23 23 23 23 23 22 21 21 22 20 19 17 17 17 16 17 22 21 21 22 22 22 20 18 16 15 16 16 17 19 20
31 31 32 32 31 29 25 25 25 25 25 23 23 23 23 23 22 20 20 21 21 21 20 18 17 17 17 19 20 20 20 21 20 18 16 15 15 15 15 15 15 17 18

GFSMW_sfc_30mbdewp_024.txt.gz
Dewpoint
35 35 36 37 38 43 46 49 48 49 48 46 44 41 40 38 38 38 39 43 43 43 44 44 44 44 45 46 46 45 45 45 43 41 37 36 36 38 37 35 34 33 35
32 34 37 39 40 42 43 43 42 41 39 37 38 40 40 39 41 42 42 42 42 42 41 42 43 43 43 44 45 47 46 44 43 41 38 33 33 36 38 37 35 35 34
30 32 35 38 39 40 40 39 40 41 42 41 40 40 39 39 38 38 38 39 40 40 40 40 41 42 43 42 43 44 44 44 44 42 40 35 32 33 34 38 37 35 36
31 33 35 38 41 42 42 41 41 40 41 43 40 41 39 38 39 39 39 38 37 37 38 39 40 41 41 41 41 41 43 43 42 42 42 42 40 36 34 36 36 36 35
35 35 37 39 41 43 43 42 41 41 41 42 42 41 40 39 39 39 38 37 35 34 34 38 40 41 41 40 42 43 43 43 42 41 41 41 40 39 38 34 34 35 34
36 37 38 38 39 41 42 41 40 39 41 41 42 41 40 39 37 36 33 31 31 31 33 36 39 41 41 41 41 41 41 41 41 40 39 38 37 36 37 35 35 34 32
37 37 37 38 39 40 41 40 40 38 38 38 38 38 36 35 34 34 32 33 32 32 34 38 39 40 41 41 40 40 40 40 40 39 38 37 37 36 35 34 35 35 36
38 37 37 39 39 41 41 41 40 38 37 36 36 36 36 36 36 35 35 34 33 34 37 39 40 39 39 39 40 40 40 38 38 36 36 35 35 36 35 33 33 32 34
37 36 37 39 39 40 41 41 39 37 37 37 38 39 38 39 37 36 35 32 35 35 38 39 38 39 40 39 38 39 38 37 37 36 36 35 35 36 36 36 35 33 28
37 37 37 38 39 39 40 40 37 37 38 39 40 38 39 39 37 35 33 34 36 38 38 39 37 37 38 38 39 38 38 36 36 35 35 34 33 33 31 32 30 28 25
38 37 38 39 39 38 37 35 37 38 39 39 39 39 39 38 35 32 33 36 37 37 36 37 38 38 38 37 36 35 34 32 30 29 27 25 23 22 21 20 21 20 19
35 36 37 38 35 35 33 36 37 37 36 35 36 37 37 36 33 33 34 35 35 38 39 38 37 35 33 34 33 29 27 25 23 23 22 20 18 19 20 19 20 19 19
34 35 36 35 34 31 34 34 31 29 31 32 33 34 35 34 34 35 36 36 36 37 36 34 32 29 28 26 24 23 23 23 22 21 20 20 20 21 20 20 19 18 16
35 36 36 34 31 33 31 26 27 30 32 34 33 32 35 35 36 36 36 35 33 32 32 32 33 33 28 24 22 21 21 21 20 21 21 21 21 21 20 19 17 17 17
36 36 34 30 32 27 25 27 31 32 33 32 31 32 37 38 39 38 35 35 32 31 31 29 25 24 23 18 22 21 19 19 18 18 19 19 20 21 22 21 19 18 17
37 35 31 31 29 26 26 29 31 32 32 31 30 33 34 34 34 33 30 26 23 22 22 22 22 21 20 23 22 22 18 17 18 19 18 18 19 19 22 23 24 24 22
35 30 30 30 28 28 27 30 32 32 32 30 29 28 27 26 25 23 22 22 22 21 20 20 21 21 21 21 21 21 19 19 20 20 19 17 16 20 21 23 24 24 24
30 29 32 29 28 27 26 29 30 30 30 28 28 26 26 23 23 22 22 22 20 20 20 20 20 20 18 20 20 21 20 20 20 19 18 18 21 21 23 24 23 24 24
32 33 31 29 29 26 26 28 28 26 29 28 28 28 26 24 23 23 21 20 20 19 19 19 19 19 20 21 21 22 20 20 20 20 21 22 23 23 26 26 25 23 23
29 32 31 29 28 25 27 26 23 23 25 26 26 25 24 24 23 20 20 19 19 18 20 21 21 21 20 21 21 20 20 22 22 21 22 23 23 26 27 27 27 24 20
29 31 30 29 27 28 26 24 22 20 22 24 25 24 24 22 20 20 19 18 19 21 24 25 23 23 22 21 21 19 20 22 21 20 21 22 28 25 23 22 22 22 24
20 25 29 28 27 28 26 24 23 22 24 25 25 24 22 20 19 20 19 19 19 20 24 23 23 22 23 19 19 18 21 23 23 21 23 26 25 22 21 21 23 22 23
25 27 27 27 28 29 28 25 24 25 25 24 23 22 21 21 21 21 20 20 19 21 22 21 20 19 18 16 18 20 21 20 21 24 24 25 23 21 21 22 20 23 25
23 23 24 24 26 28 29 28 28 26 24 24 22 22 21 22 21 21 20 19 20 21 19 18 18 17 16 15 18 20 20 20 23 23 24 23 23 24 23 22 22 24 23
21 23 25 26 26 27 28 28 26 25 24 23 23 22 22 23 22 21 20 20 21 21 19 17 16 16 16 17 19 20 19 20 20 21 22 21 20 20 20 19 19 20 21
24 24 24 25 25 25 27 26 24 24 23 23 22 22 24 24 22 20 20 21 21 20 20 18 17 16 15 17 18 18 19 19 19 20 18 18 18 18 18 17 18 20 20

GFSMW_sfc_30mbdewp_027.txt.gz
Dewpoint
38 39 40 41 40 44 45 48 50 51 49 46 44 41 40 40 39 39 42 44 44 44 44 43 43 44 43 45 47 48 47 48 47 46 46 44 43 42 39 40 38 37 37
34 37 39 41 41 42 42 43 43 43 41 39 40 41 42 41 42 42 42 41 42 42 41 40 40 39 41 43 44 46 46 46 47 45 45 42 42 41 41 40 41 40 38
32 35 39 41 42 42 41 41 41 42 43 42 40 40 39 39 39 39 41 41 42 41 40 39 39 40 41 40 42 42 42 42 43 45 44 41 39 39 40 41 41 41 41
33 35 38 40 42 43 42 41 41 41 41 43 41 43 42 41 41 42 41 41 40 37 36 34 35 38 40 41 41 39 43 42 41 41 41 43 44 42 41 41 41 41 40
36 37 37 40 42 43 43 43 40 41 42 43 43 43 42 40 38 38 37 36 33 33 32 33 35 38 40 41 41 42 41 40 40 39 42 42 42 42 41 41 41 41 41
36 37 38 38 40 42 43 42 41 40 40 41 41 40 39 38 35 35 34 33 34 33 33 33 36 38 39 39 40 43 42 42 41 41 41 39 39 38 37 36 38 39 43
37 36 37 38 40 41 42 42 40 40 39 39 38 38 37 36 35 35 35 36 34 32 31 34 37 37 39 41 41 40 40 40 39 39 38 38 36 36 35 34 34 34 38
36 36 36 38 39 40 41 42 41 38 37 37 38 38 38 37 38 38 38 36 33 32 34 36 40 41 42 41 41 41 40 39 39 38 38 37 37 37 36 35 34 33 35
35 35 36 38 38 38 38 40 40 37 37 38 38 39 40 38 38 38 36 34 33 33 37 40 39 39 39 39 39 40 40 40 37 38 39 38 37 37 37 37 35 33 29
35 36 36 36 37 38 37 38 36 36 37 38 38 37 37 36 36 36 33 32 34 39 38 39 38 38 38 38 37 38 38 37 38 38 38 36 35 34 34 33 32 33 32
36 35 35 36 37 36 36 34 36 36 34 31 30 31 33 34 34 32 32 34 36 36 37 37 38 36 35 34 34 34 33 32 30 30 30 28 27 24 22 23 27 28 27
34 34 35 36 36 34 33 33 33 27 26 26 27 29 32 32 31 33 35 35 35 36 35 37 36 34 33 29 27 28 25 24 24 25 23 20 17 18 19 19 18 19 19
33 34 35 36 35 33 32 29 24 25 27 28 29 30 30 33 35 35 36 34 35 35 35 35 35 31 28 26 26 24 22 21 20 19 19 18 19 19 19 20 19 18 17
33 34 35 35 34 31 29 24 23 26 29 29 29 28 32 36 36 39 38 38 36 34 34 32 27 24 21 20 20 19 21 20 19 19 19 19 20 20 19 19 19 18 17
33 35 36 34 31 29 26 25 25 27 29 29 28 28 33 34 36 36 35 33 31 25 23 21 20 20 19 18 21 21 21 18 17 17 18 18 20 22 21 18 18 18 18
36 37 33 30 30 26 26 24 24 27 29 28 27 28 29 28 28 28 26 24 24 24 21 19 19 19 18 24 23 22 20 18 18 18 18 18 19 19 23 24 25 24 20
36 31 30 31 30 27 26 23 24 24 26 27 25 27 27 27 27 26 25 24 22 19 18 18 18 18 19 22 22 22 20 18 19 20 20 19 17 18 19 23 24 25 27
32 30 33 31 27 27 26 23 23 22 23 23 25 25 27 27 25 22 21 19 17 18 18 18 18 19 18 23 23 22 20 20 19 20 20 18 18 20 22 23 23 23 24
32 33 31 28 28 26 25 24 23 20 20 21 23 24 26 22 21 20 18 18 18 18 17 18 21 21 22 24 24 21 21 20 20 19 22 22 23 23 24 28 27 23 24
32 26 25 25 25 26 25 25 23 21 19 19 20 23 22 21 20 18 17 18 17 16 19 23 21 22 22 24 22 21 21 21 21 20 19 21 22 25 27 27 25 23 23
23 20 20 23 24 25 24 23 23 21 19 20 23 24 22 21 19 17 18 17 16 19 27 29 25 23 25 25 22 22 21 19 23 21 22 22 28 26 24 24 23 23 26
20 20 21 20 20 21 21 21 23 21 22 25 24 24 22 20 18 18 18 17 17 20 26 27 25 24 24 21 20 21 19 22 21 21 22 27 23 24 24 24 24 25 23
14 15 16 17 18 19 19 19 24 28 30 26 25 24 23 19 18 18 17 17 18 20 24 22 22 22 20 19 20 18 19 21 21 23 24 22 26 24 25 26 24 24 25
13 14 16 17 18 18 17 18 22 29 30 25 25 25 22 20 20 19 17 18 20 22 21 19 19 18 18 17 18 18 21 20 20 21 22 26 25 25 26 26 26 26 27
12 13 16 17 17 18 18 19 20 27 26 27 29 25 21 20 24 22 20 20 21 22 19 17 17 17 17 16 16 18 19 20 20 21 24 22 21 20 22 23 23 24 23
16 16 16 18 19 20 21 23 29 27 28 30 29 22 23 24 24 22 20 22 23 21 20 19 18 17 15 14 16 17 16 18 18 20 19 19 19 18 19 20 20 21 21

GFSMW_sfc_30mbdewp_030.txt.gz
Dewpoint
40 42 44 45 45 47 49 50 50 50 49 49 46 44 44 43 43 43 45 45 46 45 46 46 46 45 45 46 47 47 47 47 49 49 47 47 47 48 46 44 42 41 41
38 41 43 44 43 43 43 44 44 44 44 43 43 44 44 44 44 44 43 44 46 45 44 44 44 44 44 44 45 45 46 46 46 46 45 43 43 44 45 45 42 41 41
36 40 42 44 44 44 43 42 42 43 44 45 43 44 45 44 42 45 45 45 45 44 43 41 40 42 43 43 44 43 43 43 44 44 43 41 39 41 43 43 46 45 44
36 39 41 44 45 45 45 43 42 42 43 45 45 46 45 44 43 41 42 42 39 40 38 38 40 41 42 43 43 42 44 44 42 43 43 44 44 42 41 42 44 46 46
37 38 40 42 44 45 45 44 42 41 43 43 43 43 43 42 41 40 39 38 40 39 39 37 38 41 41 42 44 44 43 43 42 41 40 40 39 39 39 38 39 42 45
37 38 39 40 43 44 44 44 42 41 42 41 42 41 41 41 39 40 39 40 40 38 37 37 38 41 44 43 43 43 42 41 40 39 39 38 37 36 36 35 36 36 39
37 37 37 38 40 41 42 43 43 41 40 40 41 41 41 41 40 40 41 40 38 37 36 40 43 42 42 42 42 42 41 40 39 38 38 38 37 37 36 34 33 34 36
36 35 36 38 39 39 40 40 41 40 38 39 41 43 43 42 41 41 40 38 37 36 42 42 41 41 40 40 40 40 40 41 40 38 37 37 38 38 37 35 33 31 32
35 36 37 37 38 38 39 39 39 37 37 39 40 39 40 39 39 39 38 36 37 38 40 40 40 39 39 39 39 39 39 38 38 38 38 39 38 38 38 37 36 33 29
34 35 36 36 37 38 38 39 36 37 37 34 32 30 33 35 36 37 36 38 37 37 37 38 38 38 38 38 36 35 35 36 37 37 36 36 35 35 36 37 37 35 32
35 34 34 36 37 38 37 35 35 34 29 29 29 31 33 34 35 37 37 36 37 37 37 36 36 37 37 35 35 34 34 34 34 32 30 30 30 29 28 27 30 31 32
34 34 35 37 37 36 35 34 31 26 27 28 30 31 33 33 35 35 36 38 36 35 37 37 37 37 34 32 30 29 28 27 26 25 24 23 22 23 23 24 24 24 24
33 34 35 36 37 35 33 30 27 25 27 29 30 30 31 34 37 38 38 39 39 38 37 36 34 34 32 27 24 23 24 24 23 22 22 22 22 22 23 23 23 23 22
34 35 36 37 35 33 32 28 27 27 27 28 29 30 34 33 36 36 37 37 38 37 34 31 27 25 23 21 22 23 24 24 22 22 22 22 21 21 22 22 22 20 19
37 38 36 34 32 32 31 28 27 26 27 28 29 29 31 31 32 32 33 31 29 28 27 26 23 23 22 21 23 23 22 22 21 20 21 21 22 24 23 19 20 20 20
40 38 33 32 32 32 30 27 27 25 26 26 28 28 28 30 30 30 30 29 27 27 24 22 22 22 20 24 24 24 23 22 21 20 20 22 24 21 23 23 26 27 25
36 34 33 33 33 33 27 27 27 25 25 24 25 26 26 29 29 29 27 25 25 22 22 21 22 22 24 25 25 24 23 22 21 22 22 22 21 23 22 23 23 25 26
34 33 32 33 34 28 27 27 27 25 25 23 21 22 25 25 27 27 24 23 21 21 21 21 25 24 22 26 26 24 22 21 22 21 20 20 23 23 24 24 25 27 26
34 33 32 29 24 24 26 27 26 25 24 24 22 22 23 25 25 24 23 21 20 21 20 22 24 23 23 24 25 25 23 22 21 20 21 22 21 22 23 26 25 25 25
30 25 24 21 22 22 22 22 22 22 23 25 27 30 28 25 25 24 20 20 20 19 27 26 26 26 24 26 26 25 26 24 22 21 21 21 22 26 27 26 25 23 23
22 19 17 17 17 18 19 19 18 18 27 31 31 29 27 27 25 21 20 20 20 24 27 28 29 27 26 25 23 25 25 24 22 21 20 21 24 26 23 24 24 23 24
15 13 13 14 16 17 17 17 16 18 25 29 30 32 31 27 25 20 21 21 20 23 26 26 25 25 25 23 22 27 22 18 21 21 21 25 21 24 25 25 25 26 26
12 13 12 13 15 17 18 17 18 22 27 32 34 32 29 28 25 21 20 20 21 23 24 24 22 22 21 21 21 17 16 18 19 20 22 21 24 26 26 26 27 27 25
15 15 15 15 17 18 19 19 22 24 29 30 32 31 30 29 23 24 23 21 22 23 22 21 20 20 19 18 18 17 20 19 19 20 20 22 24 22 24 25 26 26 27
16 16 17 18 18 19 21 22 25 29 29 32 31 31 29 26 25 24 23 22 24 22 22 21 20 19 18 18 15 16 19 19 20 20 22 21 20 19 20 21 21 24 24
19 19 20 21 22 22 23 23 29 30 30 30 31 31 30 26 25 24 24 24 23 24 23 21 20 19 18 16 14 15 15 15 20 20 19 18 18 17 18 20 19 21 22

GFSMW_sfc_30mbdewp_033.txt.gz
Dewpoint
43 45 45 46 46 47 46 45 44 46 47 45 43 44 42 43 44 46 45 44 47 47 45 45 44 44 44 43 44 45 43 43 45 44 45 45 46 47 47 48 47 45 44
43 45 45 46 46 44 44 44 43 44 44 45 44 45 45 44 45 46 46 46 44 44 44 42 42 43 43 44 44 42 41 43 44 43 43 40 41 42 44 45 46 47 47
42 43 44 44 44 43 42 43 43 43 45 45 46 46 46 45 43 42 43 40 41 40 39 38 39 40 42 42 42 42 44 43 44 44 43 40 39 40 41 42 43 45 47
42 43 44 44 44 44 43 43 42 42 44 44 44 43 43 42 42 41 41 41 41 40 38 38 38 40 42 43 44 43 43 42 40 41 39 40 39 35 34 39 38 39 42
40 42 43 44 44 44 43 43 43 43 43 44 43 42 42 41 41 40 40 41 41 38 38 38 42 43 43 42 42 42 41 41 40 39 37 36 35 37 35 32 33 36 37
38 41 43 44 44 45 44 43 42 42 41 42 43 42 42 41 40 40 41 40 39 38 41 42 42 42 42 42 42 41 41 40 39 38 37 37 35 34 34 33 33 33 35
38 38 39 41 42 42 42 42 41 39 39 41 42 42 41 41 40 41 39 38 37 39 42 41 40 40 41 40 40 40 40 40 39 37 36 36 36 37 36 35 33 32 33
36 37 38 39 38 39 39 39 39 38 40 42 40 39 39 39 40 40 38 37 38 40 40 40 39 39 39 39 39 39 40 39 38 38 39 38 37 38 37 35 33 30 30
35 37 37 37 38 38 39 39 37 38 36 32 30 31 34 34 34 38 38 38 38 38 39 39 39 39 38 38 38 38 37 36 37 37 37 37 36 37 37 37 36 32 28
35 37 36 37 38 38 38 36 37 33 29 29 30 31 32 33 37 37 36 36 36 37 37 38 37 35 36 37 37 36 35 35 36 36 36 35 35 35 34 33 34 35 33
35 35 36 38 37 37 36 35 28 27 27 28 29 31 32 35 36 37 37 38 38 36 36 37 37 37 37 37 35 34 33 32 32 32 29 27 27 26 27 28 27 28 30
36 36 36 37 37 35 34 28 26 26 27 28 30 30 31 36 37 37 38 38 38 38 38 37 36 35 35 34 33 29 28 25 23 22 22 22 22 23 24 24 24 24 25
36 37 37 35 34 34 31 28 27 27 26 28 29 30 32 34 35 37 37 37 37 37 37 36 34 33 31 26 25 26 25 24 23 22 21 21 21 21 22 22 23 24 22
39 39 37 34 33 33 33 29 28 26 26 28 28 29 33 32 33 35 36 36 36 35 34 29 28 25 24 24 23 23 23 22 22 23 22 22 21 22 23 24 23 21 20
38 36 34 33 33 33 33 33 28 27 26 25 26 28 32 32 32 31 32 31 30 29 28 24 23 24 23 23 23 23 23 22 22 23 22 21 22 24 26 24 26 24 22
35 34 33 33 33 34 33 29 27 27 28 26 26 26 30 30 31 30 29 29 28 27 23 22 24 24 22 26 26 25 23 22 21 20 22 23 22 22 23 25 24 24 25
35 34 33 33 33 33 34 31 27 28 28 28 27 26 29 30 30 29 29 27 26 22 22 22 24 23 24 27 26 26 24 22 20 20 21 19 18 22 24 24 25 25 25
35 34 33 33 33 33 32 27 25 27 29 27 27 28 29 29 30 32 28 25 20 20 21 24 25 23 23 25 25 27 25 23 22 22 21 20 21 23 23 22 24 25 27
35 34 34 33 29 21 19 20 20 19 21 29 31 32 33 33 34 31 27 21 19 20 23 26 25 24 24 26 27 27 26 25 24 24 22 21 21 22 22 26 24 24 24
34 33 19 15 16 18 18 19 18 17 22 25 33 34 35 35 34 33 27 20 21 26 26 25 27 27 25 26 26 26 24 23 23 22 21 21 20 23 27 24 25 22 22
17 14 13 13 15 16 17 17 17 18 27 29 32 34 34 33 33 26 20 21 24 26 26 25 26 25 25 23 22 24 24 21 21 20 19 20 21 21 24 26 25 23 24
14 15 14 15 16 16 17 18 18 24 28 29 31 35 35 33 27 23 21 22 24 24 23 22 21 23 21 21 22 19 17 17 18 19 19 22 23 25 25 25 26 27 27
16 17 16 17 18 19 20 20 23 26 29 31 32 32 32 31 27 22 22 22 23 22 22 21 20 20 20 19 19 17 17 19 18 19 21 23 24 21 23 24 25 26 26
17 18 19 20 21 22 23 23 25 30 30 32 32 31 30 29 27 25 23 22 22 22 23 22 19 18 19 18 18 17 19 20 19 21 21 23 20 21 22 23 22 24 24
20 21 21 23 24 24 25 26 28 30 29 29 28 29 30 28 25 24 23 23 23 22 21 21 19 18 17 18 18 16 17 18 21 21 20 18 18 18 18 19 20 21 21
22 22 24 25 25 27 27 30 32 31 30 29 27 27 28 27 25 25 24 25 24 24 25 25 22 20 20 19 18 17 16 15 20 18 17 16 16 16 17 17 17 19 20

GFSMW_sfc_30mbdewp_036.txt.gz
Dewpoint
45 46 47 48 48 48 46 48 48 49 49 48 46 45 44 44 46 46 46 46 44 43 41 42 41 42 42 43 43 43 41 40 44 43 41 43 42 44 43 44 45 46 48
44 44 45 46 46 47 47 44 44 44 45 45 46 46 46 45 43 43 42 41 40 39 38 39 40 41 41 40 41 43 42 44 44 42 42 39 39 41 38 41 41 44 44
43 44 44 44 44 43 43 43 43 44 44 44 44 44 45 44 42 41 41 41 39 38 37 38 39 41 42 42 43 43 42 42 42 41 40 36 36 34 36 33 38 39 39
43 43 43 43 43 42 43 43 43 43 44 44 43 42 42 40 41 41 41 41 39 38 39 41 42 43 43 42 42 42 41 40 39 40 38 39 38 32 29 34 33 35 35
43 43 43 43 43 43 43 42 42 42 42 43 43 42 41 42 42 42 41 40 39 39 42 42 42 41 41 41 41 41 40 40 38 37 37 37 36 36 33 29 31 34 35
42 43 43 44 44 44 43 43 39 39 41 42 42 42 41 41 40 41 40 39 39 41 41 41 41 41 40 40 41 40 40 39 38 38 36 34 33 33 33 31 30 30 32
40 42 43 43 44 43 42 40 39 39 42 42 41 41 40 40 40 41 38 37 37 40 40 39 39 39 39 39 38 38 38 39 37 38 36 36 35 36 35 34 32 30 31
38 40 41 42 40 39 39 40 39 40 40 35 32 34 36 36 37 38 38 38 39 40 40 39 38 38 37 37 37 37 37 38 35 36 37 38 36 37 36 34 32 30 30
36 38 40 38 38 39 39 38 38 33 30 30 31 32 33 34 37 37 37 37 37 38 39 39 39 38 38 37 37 37 36 36 35 35 35 35 35 36 36 35 36 33 28
36 38 38 38 38 38 37 34 29 28 28 29 30 32 33 37 37 37 36 36 37 37 37 37 37 36 37 37 37 36 35 34 34 35 36 35 33 32 34 33 31 32 32
36 37 38 37 36 36 30 27 27 27 27 28 30 31 32 36 37 37 37 37 37 36 37 38 37 36 35 35 33 32 33 31 27 24 23 23 23 23 23 24 24 24 26
36 36 35 34 34 34 28 27 26 26 26 27 29 30 31 36 36 37 37 36 34 36 36 36 36 33 33 33 29 27 26 24 23 23 22 22 21 21 22 23 23 23 24
38 37 35 33 33 34 33 29 28 26 26 28 28 27 29 34 35 36 36 35 35 35 35 35 33 29 28 25 25 24 23 22 23 23 22 22 21 21 22 22 24 25 24
37 36 34 34 33 34 34 34 32 28 27 27 27 27 28 33 33 35 36 35 36 35 33 30 27 26 24 23 22 23 23 23 22 23 22 22 22 22 23 24 25 25 24
35 34 34 33 33 33 34 34 32 29 29 28 27 27 28 32 33 34 33 34 32 31 29 25 25 24 23 23 24 23 23 22 22 21 21 21 21 19 21 23 25 26 24
35 34 34 32 31 32 33 34 33 30 29 29 28 30 29 31 31 32 33 32 30 32 24 23 24 23 23 26 26 25 24 23 22 21 21 22 20 19 21 23 24 25 23
35 34 32 32 33 33 32 23 23 24 24 26 30 30 29 31 32 32 34 35 34 28 22 24 25 23 24 27 26 27 26 24 23 22 22 22 20 21 22 23 23 24 25
32 32 33 33 28 27 21 20 20 19 20 28 31 32 32 32 33 34 34 32 30 26 21 25 24 23 23 26 27 27 26 25 24 24 23 22 21 21 21 22 24 25 25
33 34 32 26 21 17 18 18 18 19 26 29 31 31 34 34 35 35 34 33 33 24 25 25 24 24 25 27 26 25 24 22 22 22 22 20 20 20 20 24 23 22 24
33 24 19 15 15 16 17 18 18 21 26 28 29 32 34 34 35 34 34 32 23 26 25 25 25 26 23 22 23 22 23 20 20 21 19 19 18 20 22 24 23 22 22
15 16 16 16 16 18 19 19 19 23 27 28 30 34 35 34 34 33 26 24 26 25 24 23 23 24 21 20 21 19 17 18 19 18 17 19 20 24 24 23 24 24 25
16 17 17 18 19 21 22 22 21 24 28 31 32 32 32 32 32 24 24 25 25 23 22 20 20 21 20 20 19 16 16 17 18 18 19 22 24 20 21 24 25 25 25
18 19 20 20 22 23 24 24 24 26 29 32 32 31 31 30 29 23 22 23 23 21 22 21 20 19 20 18 19 18 18 19 19 20 21 22 18 19 21 22 22 23 23
20 21 21 23 24 26 26 27 28 30 30 31 29 28 29 29 26 24 23 22 21 21 22 21 20 18 18 18 19 19 18 19 21 21 21 20 19 19 20 20 21 22 22
22 22 23 25 26 26 25 28 32 33 33 32 30 26 29 30 28 25 22 23 23 22 22 22 21 19 19 18 19 20 18 16 20 16 17 16 16 16 17 17 18 20 20
23 24 25 26 26 25 26 28 32 33 31 30 29 27 27 27 25 25 25 24 25 25 26 26 23 21 21 21 19 20 17 13 16 15 15 14 15 15 15 15 16 16 18

GFSMW_sfc_30mbdewp_039.txt.gz
Dewpoint
46 47 48 48 51 52 54 54 54 52 50 48 46 45 44 45 43 42 42 41 40 39 39 40 39 40 38 40 41 41 39 40 43 42 40 41 41 42 37 38 42 44 41
44 45 47 48 48 49 48 46 46 46 46 45 46 46 44 42 41 41 40 39 38 37 37 37 39 41 40 41 42 42 42 43 42 40 39 36 34 38 33 35 36 38 39
44 45 45 46 46 44 43 43 43 43 44 44 44 45 44 43 41 40 40 40 38 38 38 39 40 41 42 42 42 41 39 38 40 40 37 32 31 34 33 31 34 35 36
44 44 43 43 42 43 43 43 43 43 43 43 42 41 40 39 41 41 41 40 39 39 41 42 42 42 41 40 40 41 40 40 38 38 38 38 37 32 31 32 32 33 34
42 42 42 42 42 43 42 43 43 43 43 43 43 41 41 42 42 42 41 40 39 42 42 42 41 40 40 40 40 40 39 39 38 37 37 36 35 35 32 29 29 30 32
43 43 43 43 43 44 41 40 40 41 43 42 42 41 41 40 39 40 40 39 39 41 40 39 39 39 39 39 39 39 38 38 38 38 36 34 32 31 31 30 30 31 30
42 42 43 43 44 43 42 39 39 41 41 40 39 39 38 38 38 38 38 38 37 40 39 38 38 38 38 37 37 36 36 37 36 35 36 36 35 36 36 34 32 31 31
41 42 43 43 43 42 40 39 41 40 35 31 32 34 34 34 35 37 38 38 38 38 39 39 38 37 37 36 37 36 36 36 36 35 35 36 37 36 35 34 33 29 29
40 38 40 39 39 39 39 39 36 31 30 31 31 32 33 34 35 37 37 37 37 38 39 38 38 38 38 37 37 36 35 35 35 34 35 35 35 35 34 34 34 31 25
37 38 38 37 37 37 37 34 30 28 28 29 30 31 32 36 37 37 36 36 36 37 37 37 37 37 37 37 37 34 33 33 33 33 32 30 28 26 26 26 27 26 25
37 36 35 35 35 35 29 28 27 27 26 28 30 31 31 35 37 36 36 37 37 36 36 36 37 37 34 33 33 32 29 25 24 24 23 22 23 22 22 22 23 23 24
36 35 34 34 34 34 29 28 27 27 27 27 28 29 31 32 35 36 37 37 36 34 35 35 36 35 31 28 26 25 25 23 22 22 22 22 21 21 22 22 22 23 23
36 35 34 34 33 34 34 34 32 31 27 27 28 29 28 29 32 35 36 37 35 35 35 35 34 31 26 25 24 23 22 22 22 23 22 21 20 21 22 22 23 24 25
35 35 34 33 33 33 34 34 34 32 30 30 29 28 28 29 31 33 35 36 35 36 34 34 31 27 25 23 22 23 22 22 22 23 22 20 21 21 21 21 25 25 26
34 34 33 32 32 32 33 32 28 27 27 25 28 29 30 30 31 33 33 34 35 34 34 35 31 26 24 22 23 23 22 22 22 23 22 21 22 22 20 19 21 22 24
34 33 33 32 32 32 30 25 23 22 23 23 29 30 29 30 31 32 33 33 35 35 36 32 27 25 23 25 25 26 25 25 24 23 22 22 23 22 20 19 21 22 23
33 33 33 32 29 27 23 18 19 20 20 26 30 31 31 30 30 31 34 34 33 33 30 26 26 23 24 26 27 27 27 26 25 24 23 22 20 20 20 21 22 22 23
32 32 31 25 24 18 16 18 18 19 21 28 31 31 31 32 33 33 34 31 31 30 29 25 24 22 23 27 27 26 24 22 22 21 22 21 21 21 20 22 23 23 24
33 31 28 20 16 16 17 18 19 20 26 27 28 28 31 33 34 34 34 34 34 32 25 25 23 23 24 24 25 24 21 19 19 20 20 19 18 19 20 23 22 22 22
24 16 15 16 17 18 20 22 21 21 23 26 27 30 34 34 33 34 34 33 25 26 25 24 24 25 20 21 21 20 18 16 18 19 18 18 19 21 25 23 23 21 21
16 17 18 19 19 21 23 23 23 23 24 28 30 32 33 32 32 32 25 26 26 26 24 23 23 23 21 20 20 18 17 17 18 18 18 19 21 21 20 22 23 23 24
17 19 19 20 22 24 25 25 25 26 27 29 32 32 31 31 31 29 24 27 27 23 21 20 20 22 21 20 19 18 19 18 19 19 20 21 18 18 19 21 22 23 23
19 21 21 22 24 26 26 25 26 29 30 31 31 32 29 29 28 23 23 23 23 22 21 21 20 19 20 19 20 20 21 19 19 20 18 17 17 17 20 19 21 22 21
21 21 22 23 24 26 26 25 28 32 32 31 31 31 28 29 29 29 27 23 22 21 21 21 20 19 19 19 19 19 21 17 19 17 17 16 17 17 18 18 19 20 20
21 23 24 24 25 27 25 27 28 32 30 29 30 30 28 30 28 26 23 23 23 22 22 22 22 20 20 19 21 21 18 14 16 14 14 14 14 14 15 15 16 17 17
22 23 25 25 27 26 26 28 28 28 31 29 29 29 28 28 26 24 23 24 24 25 26 26 24 22 22 23 21 18 17 14 12 12 13 12 12 13 13 13 13 14 14

GFSMW_sfc_30mbdewp_042.txt.gz
Dewpoint
46 48 50 52 54 55 57 58 58 57 54 52 47 45 42 43 41 41 40 39 39 39 39 39 39 40 39 41 42 42 41 41 42 41 38 39 41 39 34 37 40 38 38
45 46 47 48 49 51 52 53 51 50 48 46 45 43 42 41 41 40 39 38 38 38 38 39 39 40 40 41 41 40 39 40 41 38 37 32 32 36 34 34 36 35 36
44 45 45 47 48 45 43 44 44 44 44 45 45 45 43 42 40 40 39 39 39 39 40 40 41 41 41 39 39 40 38 38 39 39 37 32 31 34 33 33 34 33 33
45 45 45 42 42 42 43 43 43 42 43 43 41 40 39 39 40 41 40 39 39 41 41 41 41 40 39 38 38 40 39 38 37 37 38 37 37 33 31 32 31 32 32
43 42 42 42 42 43 43 43 43 43 43 43 42 41 41 42 42 42 41 40 40 42 41 40 39 37 38 38 39 39 38 38 37 37 36 35 34 33 32 28 27 31 32
42 42 42 43 43 43 42 42 41 42 42 42 42 41 41 40 39 40 40 39 39 40 40 38 38 38 37 37 37 37 36 36 37 37 35 33 31 29 30 30 31 31 30
42 42 43 43 44 43 40 39 41 41 41 40 39 39 38 36 34 35 35 36 37 38 39 38 37 37 37 37 37 36 35 35 35 34 34 35 35 34 35 33 31 30 30
42 42 43 44 44 42 40 39 41 38 33 32 32 33 32 31 33 35 37 37 37 38 38 38 38 37 37 37 36 36 35 35 35 35 34 34 35 37 36 34 32 29 26
40 40 41 41 39 39 39 40 36 31 30 30 31 31 31 32 34 36 37 36 37 37 38 38 38 37 37 37 37 36 35 34 34 33 33 34 35 35 34 32 32 27 23
38 39 38 38 38 37 36 31 30 28 28 29 30 31 31 33 35 36 35 36 36 36 36 37 36 36 37 37 36 36 34 32 32 30 25 24 25 24 25 24 25 27 27
36 35 34 35 33 29 28 28 27 27 26 27 28 30 31 32 36 36 36 36 36 36 35 35 35 36 36 34 33 32 28 25 24 23 22 22 23 23 23 23 22 22 23
35 34 34 34 33 34 34 31 30 32 31 28 28 28 30 30 31 33 35 37 37 37 34 35 35 35 34 31 27 26 25 22 22 22 22 22 22 19 20 21 21 22 23
35 34 34 32 33 34 34 34 34 33 31 29 29 28 29 29 29 30 32 35 36 36 35 35 35 34 31 26 25 24 22 22 22 22 22 22 20 19 20 21 22 22 24
34 34 32 32 32 32 33 32 27 26 25 24 25 28 29 28 29 31 31 33 34 35 35 34 33 33 30 25 23 23 22 22 22 23 23 22 22 21 21 22 20 21 22
33 33 32 32 32 31 29 26 24 23 24 23 26 29 30 29 29 29 30 33 34 34 35 35 35 32 24 23 23 23 23 24 24 24 24 23 23 24 23 22 21 20 20
32 32 32 32 29 27 25 20 19 19 22 22 28 30 30 29 29 30 31 33 34 34 35 34 32 26 26 25 26 28 27 27 26 25 24 24 22 22 21 20 19 19 20
32 32 32 29 27 22 20 17 19 20 21 23 27 31 30 30 31 33 33 33 31 31 30 28 27 24 23 26 27 28 25 23 21 20 20 19 18 19 20 20 20 21 22
32 32 30 24 21 17 18 19 20 20 20 24 27 30 29 30 32 33 33 32 32 33 31 27 24 22 24 26 27 26 21 19 19 19 19 19 19 20 19 20 22 22 22
33 30 27 19 16 18 20 21 22 22 22 24 26 28 29 32 32 32 32 34 33 32 30 25 23 23 22 23 24 22 20 17 17 18 19 18 19 20 21 24 22 21 21
27 17 16 17 19 20 22 23 24 24 24 25 27 29 32 32 31 31 33 32 27 25 25 24 23 25 20 21 21 20 18 16 18 19 19 19 20 20 19 21 22 20 21
15 17 19 19 21 23 25 25 24 24 27 29 28 31 32 31 31 31 29 25 25 27 27 23 23 24 21 20 20 19 19 18 19 18 19 20 20 18 19 20 21 22 23
18 19 20 20 23 25 26 24 23 26 30 31 32 32 32 32 30 28 27 26 29 25 22 20 20 21 21 21 20 20 20 20 18 18 20 20 17 16 17 19 21 21 21
19 21 21 22 24 26 26 24 25 28 30 31 29 29 31 31 28 24 24 25 25 24 21 21 21 20 20 20 21 20 22 20 17 19 15 15 15 16 17 16 19 19 19
21 21 22 23 23 26 27 26 26 29 31 28 28 28 31 28 30 29 28 26 23 21 21 21 20 20 20 20 19 20 21 17 17 16 15 14 15 14 15 15 16 18 17
21 22 23 24 24 27 27 27 28 27 26 29 29 29 29 28 27 27 25 26 25 23 22 22 22 21 21 21 21 21 18 14 14 12 12 12 11 11 13 13 13 14 12
22 23 25 26 27 27 27 28 26 25 26 27 28 28 28 27 26 24 23 23 24 24 26 27 25 22 23 23 23 19 18 15 13 9 10 10 9 9 11 12 12 11 9

GFSMW_sfc_30mbdewp_048.txt.gz
Dewpoint
50 53 55 55 56 57 58 59 58 58 59 58 54 50 46 45 44 42 44 43 43 44 44 42 43 42 41 40 38 35 31 29 31 32 26 26 28 37 35 34 32 33 33
51 53 55 56 56 57 58 58 57 57 57 55 49 46 45 42 41 42 44 43 44 44 42 44 42 41 36 36 35 34 31 28 29 33 31 21 21 23 32 33 33 33 33
50 52 54 55 56 57 57 55 56 56 53 48 47 46 45 42 41 42 41 43 44 44 44 42 39 37 35 31 33 33 32 29 28 30 32 27 22 27 25 27 27 30 29
47 46 44 45 48 50 50 49 51 49 49 47 44 41 39 39 42 42 42 42 44 43 40 38 37 35 35 34 32 29 34 31 28 27 28 30 30 29 25 25 23 24 24
46 39 39 41 42 45 46 45 44 44 46 46 44 43 42 43 42 42 41 41 40 40 37 36 36 35 34 33 35 34 33 32 30 28 28 28 27 26 26 26 24 23 24
42 39 40 41 43 46 47 46 44 44 45 45 45 44 43 39 35 33 32 31 31 31 33 34 35 35 36 35 35 35 34 33 32 30 31 30 30 31 30 30 29 26 24
40 40 40 41 42 44 45 45 43 43 44 43 41 38 36 34 32 32 30 29 27 28 30 32 34 35 35 37 36 34 33 33 32 32 31 31 29 28 27 28 25 23 23
40 40 41 42 43 44 44 43 42 41 39 38 35 35 33 32 32 31 32 31 30 31 32 35 36 37 37 37 36 35 34 34 34 33 31 29 27 28 28 27 26 24 19
41 41 42 43 44 44 44 44 41 37 35 34 34 33 34 33 33 33 34 34 36 34 34 36 37 37 36 36 35 34 33 32 33 32 32 29 25 24 23 21 20 20 19
41 42 43 45 44 44 43 41 36 32 31 32 33 31 32 32 33 34 33 32 32 31 32 32 32 32 33 34 33 32 30 31 31 30 26 25 22 21 20 18 17 17 16
41 42 41 42 41 39 37 34 31 31 33 31 32 33 31 28 27 27 26 26 26 24 24 24 27 29 31 32 33 33 31 31 29 26 25 22 21 20 19 19 17 16 15
39 39 38 35 34 34 33 34 35 33 34 33 26 24 25 25 24 23 24 25 24 25 26 28 30 31 32 34 34 33 34 31 27 24 23 21 20 20 19 18 17 17 16
37 36 36 35 35 35 34 33 31 28 23 20 21 21 22 22 22 23 24 25 26 28 28 30 30 30 33 33 34 33 33 29 25 23 23 22 21 19 18 18 17 17 16
36 35 34 33 32 32 29 28 25 22 20 20 19 17 21 24 24 25 26 27 28 29 30 30 33 35 35 33 34 30 27 26 24 24 24 22 20 20 19 17 16 14 14
35 34 33 31 30 28 25 22 20 20 21 19 17 18 24 25 25 26 27 28 30 30 30 31 32 33 32 29 28 27 25 24 23 22 19 17 17 16 17 17 16 16 15
34 32 30 29 27 24 21 18 19 21 21 18 19 20 23 25 27 27 28 29 28 29 30 29 29 29 27 26 27 26 23 22 19 17 16 14 13 14 17 17 18 18 16
33 30 29 27 24 21 18 19 20 21 21 19 18 19 21 23 26 26 28 28 28 29 30 30 30 29 28 27 29 24 21 20 18 17 15 13 12 15 15 16 17 19 24
32 30 30 26 21 19 20 22 20 19 19 18 19 20 22 23 25 28 28 27 28 30 30 31 32 29 25 26 26 24 21 20 19 17 16 15 15 15 19 16 19 18 17
32 31 28 22 19 19 21 20 18 18 17 18 21 22 25 26 27 27 27 27 27 27 26 30 30 27 25 23 25 22 21 21 20 19 17 16 15 17 17 19 19 18 18
31 27 20 18 20 21 22 19 16 17 18 20 23 25 26 27 28 28 28 27 26 25 26 25 27 26 25 22 22 21 23 22 21 19 16 16 17 16 16 17 18 18 18
25 18 18 19 20 21 21 19 18 18 20 23 26 26 26 26 26 27 29 26 24 28 30 30 30 25 25 25 22 22 23 22 20 19 16 15 16 15 15 15 16 18 17
18 19 19 18 20 20 20 17 17 19 23 25 26 26 26 25 24 26 26 25 25 28 30 29 28 27 26 24 23 23 22 21 20 19 17 17 15 14 14 15 15 14 15
19 20 19 20 20 20 20 20 21 24 26 26 25 26 26 25 24 25 25 25 25 25 27 27 25 24 24 22 24 24 23 21 21 19 18 16 13 12 13 13 13 14 13
21 22 19 18 18 20 22 24 25 26 26 25 24 26 27 27 25 25 24 24 23 23 23 24 24 25 24 22 23 24 23 24 22 19 17 15 15 13 11 12 12 12 10
26 21 20 20 20 22 24 25 25 26 25 24 24 24 25 26 26 25 24 23 22 22 21 20 25 25 24 24 24 23 21 22 20 18 17 15 14 10 9 10 11 11 8
22 21 21 22 22 23 23 23 23 24 24 24 23 24 26 25 25 25 24 25 24 23 25 25 24 25 26 26 25 25 24 21 18 16 17 16 16 13 10 9 10 10 8